sat.trackr.live / text

‹ back to catalog

STARLINK-31815

NORAD 59801 · 2024-093V

PAYLOAD ACTIVE UNKNOWN

§ Identity

Operator
Country
US
Launch date
2024-05-18
Launch site
AFETR
Launch vehicle
Mass (kg)
RCS (m²)

Purposes: comms

External: N2YO · Heavens-Above · Gunter

§ Orbital elements

Epoch: 2026-09-21T04:39:35.708256Z

Period
94.27 min
Inclination
43.0016°
Eccentricity
0.0001357
Mean motion
15.27582003 rev/d
Perigee alt
482.1 km
Apogee alt
484.0 km
Semi-major
6,861.2 km
B*
3.7767e-5
RAAN
184.9283°
Arg perigee
263.8912°
Mean anomaly
96.1785°
Rev number
13,259

§ Raw data

STARLINK-318151 59801U 24093V   26264.19416329  .00000777  00000+0  37767-4 0  99902 59801  43.0016 184.9283 0001357 263.8912  96.1785 15.27582003132590

JSON: /api/v1/satellites/59801 · /tle

For live sub-satellite position, see the globe view (requires WebGL).

§ Visibility from observer

Set your observer location to see the next 7 days of passes ≥ 10°. The values pass through the URL so the page stays shareable.

No JS? Fill the form by hand. The geolocation button needs JavaScript.